ONEWEB-0229 (48779 NORAD) Tracking and Keplerian Element Data

This shows tracking and keplerian element data for the satellite.

Feedback or suggestion? Click here.




ElementValue
Catalog48779
NameONEWEB-0229
Epoch Orbit353
Epoch Day214.91667824
Epoch Year2021
RAAN254.7318
Inclination87.567
Eccentricity0.0008835
Argument of Perigee53.5328
Mean Anonmoly38.4829
Mean Motion14.31089405
Decay Rate-0.01421928
L11 48779U 21045N 21214.91667824 -.01421928 00000-0 -57706+0 0 9993
L22 48779 87.5670 254.7318 0008835 53.5328 38.4829 14.31089405 3530

Live tracking and technical data element details for ONEWEB-0229 (NORAD 48779). ONEWEB-0229 can be tracked NOW for your location showing map with azimuth and elevation plus other details from your city location.

Track the satellite on the map from your city or location and see movement details for azimuth, elevation, latitude, longitude, range, height, and movement on the map or in text.







IsCatalogInMostPopularTable: catalog: 48779, numindb: 21
Update: records affected: 1



GetName: 48779 ONEWEB-0229

Hit Count: updated at: Tue, 03 Aug 2021 23:26:39 GMT